User: anonymous   Login
Location: Smithers
(54.7670°N, 127.1670°W)
Time: 10:16:59
(UTC-08:00)
Language:

ERBS - Orbit

View from above orbital plane
View from above orbital plane
View from above satellite
View from above satellite

Ground track
Ground track

The orbit data is extracted from the following two-line orbital elements,

1 15354U 84108B   17021.21221096  .00002389  00000-0  63033-4 0  9994
2 15354  57.0090  50.6965 0012149 158.3755 201.7815 15.42620624775514
Epoch (UTC): 21 January 2017 05:05:35
Eccentricity: 0.0012149
inclination: 57.0090°
perigee height: 430 km
apogee height: 446 km
right ascension of ascending node: 50.6965°
argument of perigee: 158.3755°
revolutions per day: 15.42620624
mean anomaly at epoch: 201.7815°
orbit number at epoch: 77551

The dashed part of the orbit path shows where the satellite is in the earth's shadow,  

DLR